EST,Max TemperatureF,Mean TemperatureF,Min TemperatureF,Max Dew PointF,MeanDew PointF,Min DewpointF,Max Humidity, Mean Humidity, Min Humidity, Max Sea Level PressureIn, Mean Sea Level PressureIn, Min Sea Level PressureIn, Max VisibilityMiles, Mean VisibilityMiles, Min VisibilityMiles, Max Wind SpeedMPH, Mean Wind SpeedMPH, Max Gust SpeedMPH,PrecipitationIn, CloudCover, Events, WindDirDegrees
2010-12-1,42,35,28,37,26,18,92,65,38,30.22,30.09,29.94,10,9,2,22,11,28,0.01,5,Rain-Snow,244
2010-12-2,41,34,26,26,21,19,78,61,44,30.32,30.26,30.21,10,10,10,9,4,12,0.00,4,,222
2010-12-3,51,41,30,32,28,23,85,66,46,30.19,30.13,30.08,10,10,10,12,4,15,0.00,3,,294
2010-12-4,47,42,37,43,35,28,100,82,64,30.09,29.93,29.81,10,5,2,17,6,24,0.18,7,Rain,287
2010-12-5,39,35,30,30,24,19,85,71,56,30.26,30.17,30.01,10,8,2,17,8,22,0.03,8,Rain-Snow,331
2010-12-6,33,28,22,23,17,13,78,62,45,30.24,30.19,30.10,10,9,3,20,9,26,T,7,Snow,286
2010-12-7,31,25,19,18,13,10,77,62,46,30.22,30.13,30.08,10,8,2,12,5,16,T,5,Snow,284
2010-12-8,33,24,15,15,13,9,88,62,36,30.30,30.24,30.21,10,10,9,9,3,13,0.00,0,,28
2010-12-9,43,31,18,21,17,14,84,59,33,30.36,30.29,30.22,10,10,8,9,3,13,0.00,0,,24
2010-12-10,50,39,27,24,20,16,75,50,24,30.27,30.22,30.18,10,10,10,18,3,22,0.00,1,,248
2010-12-11,53,45,36,39,27,23,70,51,32,30.17,29.98,29.67,10,10,6,9,3,14,0.09,6,Rain,39
2010-12-12,42,33,23,38,25,15,92,80,68,29.71,29.61,29.52,10,4,0,26,13,36,0.62,8,Fog-Rain-Snow,251
2010-12-13,25,21,16,16,11,8,77,66,55,30.16,29.92,29.70,10,8,2,23,12,31,T,7,Snow,263
2010-12-14,27,19,10,10,9,4,92,66,40,30.25,30.18,30.13,10,9,2,12,3,14,T,3,Snow,244
2010-12-15,29,20,11,25,16,8,92,71,50,30.19,30.07,29.95,10,9,4,8,3,10,0.07,6,Rain-Snow,49
2010-12-16,54,41,27,52,36,25,100,91,82,29.95,29.76,29.62,10,5,1,29,7,35,0.65,8,Rain,261
2010-12-17,39,36,33,36,30,27,92,78,64,30.17,30.09,29.95,10,10,7,13,4,15,0.00,8,,333
2010-12-18,41,35,28,30,26,21,78,69,60,30.14,30.08,30.01,10,8,6,12,6,14,0.00,6,,14
2010-12-19,37,30,22,23,21,19,88,68,48,30.15,30.11,30.05,10,9,7,9,2,16,0.00,2,,15
2010-12-20,43,32,20,26,23,18,88,69,49,30.24,30.17,30.12,10,9,6,10,3,13,0.00,4,,30
2010-12-21,39,37,35,37,34,25,100,80,59,30.11,30.04,29.99,10,4,0,9,4,13,0.17,8,Fog-Rain,41
2010-12-22,51,41,30,45,36,22,93,78,63,30.30,30.05,29.94,10,6,0,18,7,24,0.01,7,Fog-Rain,300
2010-12-23,40,34,27,23,20,19,72,60,48,30.41,30.35,30.28,10,10,10,18,11,23,0.00,5,,26
2010-12-24,42,34,26,24,21,18,75,59,43,30.32,30.23,30.09,10,10,10,16,7,20,0.00,3,,34
2010-12-25,37,33,28,32,29,23,96,75,54,30.08,29.98,29.90,10,3,0,14,5,22,0.21,8,Fog-Snow,5
2010-12-26,29,27,25,25,21,16,92,75,58,30.09,29.97,29.91,10,3,0,14,8,21,0.05,8,Fog-Snow,339
2010-12-27,34,28,21,18,16,14,74,61,47,30.35,30.23,30.06,10,10,9,18,6,23,T,4,Snow,347
2010-12-28,38,27,15,20,17,11,88,68,47,30.37,30.30,30.23,10,10,8,6,1,7,0.00,0,,220
2010-12-29,37,28,19,27,23,16,92,78,64,30.24,30.17,30.10,10,10,8,9,3,12,0.00,5,,24
2010-12-30,50,41,31,39,33,26,83,72,60,30.16,30.11,30.06,10,10,8,15,2,16,0.01,6,Rain,61
2010-12-31,63,52,40,49,41,36,86,69,52,30.20,30.12,30.05,10,10,4,10,3,15,0.10,5,Rain,357